FW8060 Weather Reports


time (UTC)temp
F
wind
direction
speed
knots
gust
knots
rain 1hr
in
rain 24hr
in
rain mn
in
humidity
%
barometer
mb
20260510063932 53 38 2.6 8.7 0.00 0.00 0.00 87 1015.0
20260510063328 54 32 2.6 8.7 0.00 0.00 0.00 80 1015.0
20260510062306 54 57 2.6 6.1 0.00 0.00 0.00 81 1015.0
20260510061427 53 54 2.6 8.7 0.00 0.00 0.00 83 1015.0
20260510060713 51 51 1.7 4.3 0.00 0.00 0.00 88 1015.1
20260510060527 51 48 1.7 3.5 0.00 0.00 0.00 88 1015.0
20260510060324 53 38 2.6 8.7 0.00 0.00 0.00 85 1015.0
20260510054306 52 40 1.7 6.1 0.00 0.00 0.00 88 1015.1
20260510050307 50 22 0.9 4.3 0.00 0.00 0.00 87 1015.1
20260510045306 50 32 1.7 3.5 0.00 0.00 0.00 87 1015.0
20260510044303 50 43 0.9 2.6 0.00 0.00 0.00 88 1015.1
20260510043303 50 43 0.9 3.5 0.00 0.00 0.00 88 1015.0
20260510042306 50 40 0.9 3.5 0.00 0.00 0.00 89 1015.1
20260510041312 50 41 0.9 4.3 0.00 0.00 0.00 89 1014.9
20260510040259 50 58 1.7 3.5 0.00 0.00 0.00 89 1014.8
20260510035306 50 58 0.9 2.6 0.00 0.00 0.00 89 1014.8
20260510034303 50 58 0.9 6.1 0.00 0.00 0.00 89 1015.0
20260510033301 50 333 0.9 3.5 0.00 0.00 0.00 89 1014.9
20260510032305 51 327 0.9 4.3 0.00 0.00 0.00 89 1015.1
20260510031257 51 302 0.9 2.6 0.00 0.00 0.00 89 1015.0
20260510030348 51 35 0.9 1.7 0.00 0.00 0.00 88 1015.0
20260510025255 51 35 0.9 2.6 0.00 0.00 0.00 88 1015.1
20260510024257 51 53 0.9 2.6 0.00 0.00 0.00 88 1015.1
20260510023253 51 45 0.9 2.6 0.00 0.00 0.00 88 1015.2
20260510023222 51 40 0.9 2.6 0.00 0.00 0.00 88 1015.1
20260510021254 51 58 0.9 3.5 0.00 0.00 0.00 87 1015.1
20260510020254 51 58 0.9 1.7 0.00 0.00 0.00 87 1015.3
20260510015255 51 58 0.9 2.6 0.00 0.00 0.00 87 1015.1
20260510014413 51 44 0.9 1.7 0.00 0.00 0.00 86 1015.2
20260510014309 51 42 0.9 2.6 0.00 0.00 0.00 87 1015.2
20260510012257 51 44 0.9 1.7 0.00 0.00 0.00 86 1015.4
20260510011253 51 44 0.9 2.6 0.00 0.00 0.00 85 1015.4
20260510010248 51 55 0.9 2.6 0.00 0.00 0.00 85 1015.5
20260510005249 51 0 0.9 1.7 0.00 0.00 0.00 85 1015.5
20260510004248 51 0 0.9 2.6 0.00 0.00 0.00 84 1015.6
20260510003251 52 41 0.9 2.6 0.00 0.00 0.00 83 1015.7
20260510002246 52 41 0.9 1.7 0.00 0.00 0.00 82 1015.8
20260510001249 52 41 0.9 1.7 0.00 0.00 0.00 82 1015.9
20260510000248 52 41 0.9 2.6 0.00 0.00 0.00 82 1015.9
20260509235245 52 41 0.9 3.5 0.00 0.00 0.00 81 1015.9
20260509234244 52 41 0.9 2.6 0.00 0.00 0.00 80 1016.0
20260509233245 52 41 0.9 2.6 0.00 0.00 0.00 80 1016.1
20260509232246 52 41 0.9 2.6 0.00 0.00 0.00 79 1016.1
20260509231242 52 41 0.9 2.6 0.00 0.00 0.00 78 1016.1
20260509230241 53 41 0.9 1.7 0.00 0.00 0.00 77 1016.2
20260509225241 53 41 0.9 2.6 0.00 0.00 0.00 77 1016.2
20260509224243 53 41 0.9 2.6 0.00 0.00 0.00 76 1016.3
20260509223242 53 42 0.9 1.7 0.00 0.00 0.00 76 1016.3
20260509222240 53 341 0.9 1.7 0.00 0.00 0.00 75 1016.3
20260509221735 53 30 0.9 1.7 0.00 0.00 0.00 74 1016.2
20260509220240 53 34 0.9 3.5 0.00 0.00 0.00 73 1016.3
20260509215240 54 21 0.9 2.6 0.00 0.00 0.00 71 1016.2
20260509214242 54 19 0.9 1.7 0.00 0.00 0.00 69 1016.3
20260509213241 55 33 0.9 2.6 0.00 0.00 0.00 68 1016.3
20260509212324 55 350 0.9 2.6 0.00 0.00 0.00 68 1016.3
20260509212245 55 45 0.9 3.5 0.00 0.00 0.00 67 1016.3
20260509210235 56 0 0.9 1.7 0.00 0.00 0.00 68 1016.2
20260509205316 56 332 0.9 2.6 0.00 0.00 0.00 68 1016.1
20260509204348 57 54 0.9 2.6 0.00 0.00 0.00 68 1016.1
20260509204246 56 37 1.7 3.5 0.00 0.00 0.00 68 1016.1
20260509202234 57 54 0.9 2.6 0.00 0.00 0.00 68 1016.1
20260509201232 57 54 0.9 1.7 0.00 0.00 0.00 68 1016.1
20260509200232 57 54 0.9 3.5 0.00 0.00 0.00 68 1016.1
20260509200210 58 5 0.9 2.6 0.00 0.00 0.00 67 1016.0
20260509194233 58 28 0.9 4.3 0.00 0.00 0.00 66 1015.9
20260509193754 60 91 1.7 4.3 0.00 0.00 0.00 62 1015.8
20260509193520 59 338 0.9 3.5 0.00 0.00 0.00 64 1015.8
20260509193257 59 5 0.9 3.5 0.00 0.00 0.00 65 1015.9
20260509191245 60 22 1.7 4.3 0.00 0.00 0.00 64 1015.8
20260509185234 61 23 1.7 4.3 0.00 0.00 0.00 62 1015.9
20260509184228 62 37 1.7 8.7 0.00 0.00 0.00 61 1015.9
20260509183239 62 63 1.7 5.2 0.00 0.00 0.00 60 1015.8
20260509182234 63 53 1.7 7.8 0.00 0.00 0.00 59 1015.6
20260509181252 65 42 2.6 9.6 0.00 0.00 0.00 57 1015.5
20260509181232 64 53 2.6 7.8 0.00 0.00 0.00 58 1015.6
20260509180414 64 30 2.6 6.1 0.00 0.00 0.00 57 1015.6
20260509175322 65 17 1.7 5.2 0.00 0.00 0.00 57 1015.6
20260509173237 66 9 2.6 10.4 0.00 0.00 0.00 56 1015.4
20260509172440 67 338 2.6 7.8 0.00 0.00 0.00 55 1015.3
20260509172241 66 324 4.3 13.0 0.00 0.00 0.00 55 1015.4
20260509170758 68 35 3.5 7.8 0.00 0.00 0.00 53 1015.3
20260509170326 68 69 2.6 11.3 0.00 0.00 0.00 54 1015.2
20260509164236 68 315 5.2 13.0 0.00 0.00 0.00 52 1015.4
20260509163231 69 9 4.3 10.4 0.00 0.00 0.00 51 1015.3
20260509162417 71 79 2.6 7.0 0.00 0.00 0.00 47 1015.3
20260509162238 70 49 2.6 6.1 0.00 0.00 0.00 49 1015.3
20260509160937 72 40 2.6 7.0 0.00 0.00 0.00 46 1015.3
20260509160300 71 44 2.6 8.7 0.00 0.00 0.00 47 1015.4
20260509155353 72 72 1.7 4.3 0.00 0.00 0.00 46 1015.4
20260509155226 71 46 1.7 7.0 0.00 0.00 0.00 48 1015.4
20260509152222 70 34 2.6 9.6 0.00 0.00 0.00 48 1015.3
20260509151554 71 31 2.6 9.6 0.00 0.00 0.00 44 1015.1
20260509151246 70 0 1.7 6.1 0.00 0.00 0.00 47 1015.3
20260509150245 71 15 2.6 5.2 0.00 0.00 0.00 47 1015.3
20260509144215 72 25 2.6 8.7 0.00 0.00 0.00 44 1015.3
20260509143226 72 46 1.7 5.2 0.00 0.00 0.00 45 1015.5
20260509142222 73 16 2.6 7.8 0.00 0.00 0.00 43 1015.5
20260509141312 71 51 2.6 9.6 0.00 0.00 0.00 46 1015.7
20260509141216 71 297 1.7 3.5 0.00 0.00 0.00 48 1015.6
20260509135213 72 67 1.7 7.0 0.00 0.00 0.00 44 1015.7
20260509134222 73 65 1.7 5.2 0.00 0.00 0.00 43 1015.8
20260509133218 70 51 0.9 7.0 0.00 0.00 0.00 46 1015.8
20260509132215 71 17 2.6 8.7 0.00 0.00 0.00 44 1015.8
20260509131218 72 66 2.6 7.8 0.00 0.00 0.00 43 1015.9
20260509130230 72 320 2.6 8.7 0.00 0.00 0.00 43 1016.0
20260509125221 71 50 2.6 7.8 0.00 0.00 0.00 46 1016.1
20260509124215 73 344 1.7 7.0 0.00 0.00 0.00 44 1016.3
20260509124144 73 47 1.7 6.1 0.00 0.00 0.00 45 1016.4
20260509122212 72 67 0.9 4.3 0.00 0.00 0.00 44 1016.6
20260509121208 74 36 1.7 7.8 0.00 0.00 0.00 42 1016.6
20260509120212 73 31 1.7 3.5 0.00 0.00 0.00 44 1016.8
20260509115206 72 64 2.6 7.8 0.00 0.00 0.00 44 1016.8
20260509115019 71 57 2.6 8.7 0.00 0.00 0.00 46 1017.2
20260509114303 72 105 1.7 5.2 0.00 0.00 0.00 46 1016.9
20260509113224 71 71 1.7 8.7 0.00 0.00 0.00 47 1017.1
20260509112204 69 91 1.7 7.8 0.00 0.00 0.00 49 1017.1
20260509110208 71 98 2.6 8.7 0.00 0.00 0.00 45 1017.2
20260509105410 71 101 2.6 10.4 0.00 0.00 0.00 48 1017.3
20260509105223 71 49 2.6 10.4 0.00 0.00 0.00 48 1017.3
20260509103205 70 115 1.7 4.3 0.00 0.00 0.00 47 1017.4
20260509103146 69 54 2.6 7.8 0.00 0.00 0.00 50 1017.7
20260509102322 70 11 3.5 8.7 0.00 0.00 0.00 48 1017.6
20260509101251 70 71 1.7 7.8 0.00 0.00 0.00 49 1017.6
20260509095208 69 66 2.6 9.6 0.00 0.00 0.00 48 1017.8
20260509094214 68 46 2.6 8.7 0.00 0.00 0.00 49 1017.8
20260509093210 68 347 3.5 9.6 0.00 0.00 0.00 51 1017.9
20260509092209 68 49 1.7 7.0 0.00 0.00 0.00 51 1017.9
20260509091210 68 49 1.7 6.1 0.00 0.00 0.00 53 1017.8
20260509090216 68 74 1.7 4.3 0.00 0.00 0.00 53 1017.8
20260509085201 67 59 1.7 7.8 0.00 0.00 0.00 53 1017.6
20260509084202 66 84 1.7 7.0 0.00 0.00 0.00 53 1017.7
20260509083205 65 59 3.5 6.1 0.00 0.00 0.00 56 1017.8
20260509082218 65 42 1.7 6.1 0.00 0.00 0.00 59 1017.8
20260509081203 64 61 1.7 6.1 0.00 0.00 0.00 59 1017.7
20260509080531 64 55 0.9 3.5 0.00 0.00 0.00 61 1017.7
20260509080222 64 92 1.7 7.0 0.00 0.00 0.00 60 1017.8
20260509074203 62 40 1.7 7.0 0.00 0.00 0.00 62 1017.7
20260509073158 62 63 1.7 4.3 0.00 0.00 0.00 64 1017.9
20260509072207 61 65 1.7 4.3 0.00 0.00 0.00 64 1017.8
20260509071159 60 59 1.7 4.3 0.00 0.00 0.00 68 1017.9
20260509070149 59 49 1.7 4.3 0.00 0.00 0.00 69 1017.8
20260509065200 58 41 1.7 4.3 0.00 0.00 0.00 70 1017.7